Location: Aarberg
(47.0438°N, 7.2736°E)
Time: 11:50:00
(UTC+00:00)

Daily predictions for brighter satellites

Satellite Brightness Start Highest point End
(mag) Time Altitude Azimuth Time Altitude Azimuth Time Altitude Azimuth
Cosmos 1606 2.6 16:12:31 10° S 16:16:16 86° E 16:20:04 10° N
Lacrosse 5 rocket 2.8 16:14:36 10° NW 16:17:27 19° N 16:20:25 10° NE
Nadezhda 4 Rocket 4.1 16:11:44 10° N 16:18:01 64° ENE 16:24:18 10° SSE
CZ-4B R/B 4.2 16:16:11 10° ESE 16:20:16 22° ENE 16:24:19 10° N
ADEOS 4.1 16:15:23 10° S 16:20:34 66° WSW 16:25:48 10° NNW
CZ-2C R/B 4.1 16:20:10 10° NE 16:23:17 16° E 16:26:22 10° SE
Cosmos 540 Rocket 4.5 16:19:11 10° SSE 16:23:23 27° E 16:27:37 10° NE
CZ-4C R/B 3.5 16:17:15 10° NNW 16:23:27 36° NNE 16:30:42 10° E
Cosmos 1500 Rocket 3.8 16:19:07 10° N 16:23:27 48° ENE 16:27:43 10° SSE
CZ-4B R/B 2.8 16:23:02 10° SSE 16:27:07 80° ENE 16:31:01 10° N
SMAP 3.2 16:24:21 10° SE 16:28:51 52° ENE 16:33:23 10° N
Cosmos 1500 4.4 16:26:03 10° NNE 16:28:53 20° ENE 16:31:42 10° ESE
USA 305 3.9 16:25:14 10° WNW 16:29:07 34° N 16:32:56 10° ENE
CZ-2C R/B 2.9 16:26:01 10° SSE 16:30:57 88° WSW 16:35:45 10° NNW
Cosmos 1092 Rocket 4.2 16:26:34 10° N 16:32:45 50° ENE 16:38:51 10° SSE
Cosmos 468 Rocket 4.2 16:27:57 10° S 16:32:56 52° ESE 16:37:59 10° NNE
Cosmos 1898 Rocket 3.5 16:29:11 10° NNW 16:34:23 59° ENE 16:39:31 10° SE
Cosmos 44 4.0 16:30:10 10° NW 16:34:51 56° WSW 16:39:14 10° SSE
Cosmos 1805 Rocket 4.0 16:30:55 10° N 16:34:59 38° ENE 16:39:01 10° SE
Sich 1 3.7 16:31:47 10° N 16:35:36 31° ENE 16:39:26 10° SE
Cosmos 1933 3.9 16:32:37 10° SSE 16:36:21 37° E 16:40:06 10° NNE
Cosmos 1842 Rocket 3.7 16:34:32 10° SSW 16:38:59 80° W 16:43:30 10° N
Cosmos 2221 2.9 16:34:51 10° SSW 16:39:06 68° W 16:43:25 10° N
PSLV R/B 4.1 16:38:46 10° SE 16:42:11 38° ENE 16:45:40 10° N
SL-08 R/B 3.9 16:40:47 10° N 16:45:26 59° WNW 16:49:59 10° SSW
Cosmos 2084 3.7 16:46:45 10° NW 16:51:03 78° SW 16:55:31 10° SE
Cosmos 1656 4.4 16:46:05 10° NNW 16:51:32 58° WSW 16:57:00 10° S
deb Chang Zheng 4 4.3 16:48:17 10° SE 16:52:00 29° ENE 16:55:45 10° N
AQUARIUS 4.1 16:47:58 10° SSE 16:52:26 74° ENE 16:56:56 10° N
Cosmos 1627 Rocket 4.5 16:47:23 10° N 16:53:30 60° ENE 16:59:31 10° SSE
FengYun 1-2 T 4.4 16:48:17 10° S 16:53:53 78° WSW 16:59:27 10° NNW
H-2A R/B 2.2 16:49:52 10° SE 16:54:50 49° ENE 16:59:42 10° N
Cosmos 2034 Rocket 4.1 16:49:39 10° S 16:55:49 81° W 17:02:00 10° N
NOSS 2-2 (C) 4.4 16:52:36 10° NNW 16:57:31 55° NE 17:04:21 10° SE
ERBS 4.1 16:55:23 10° WNW 16:57:54 21° NNW 16:59:46 13° NNE
Cosmos 1666 3.7 16:55:34 10° NNE 16:58:37 23° ENE 17:01:39 10° SE
Cosmos 2322 Rocket 3.7 16:55:43 10° N 16:59:06 16° NE 17:00:05 15° NE
USA 306 4.0 16:57:32 10° WNW 17:01:23 32° N 17:03:44 19° NE
Cosmos 2279 Rocket 4.5 16:56:27 10° SSE 17:02:01 37° E 17:07:38 10° NNE
Cosmos 1697 Rocket 2.7 16:57:18 10° NNW 17:02:57 90° NE 17:08:35 10° SSE
USA 267 3.4 16:58:13 14° NE 17:03:59 73° NNW 17:10:30 10° WSW
Cosmos 2369 3.7 17:00:35 10° NNW 17:06:19 67° ENE 17:12:00 10° SE
Cosmos 1980 Rocket 2.3 17:01:13 10° NNW 17:06:48 54° ENE 17:12:18 10° SE
Cosmos 1763 Rocket 3.6 17:02:42 10° SSW 17:07:46 77° WNW 17:12:54 10° NNE
COSMO-SKYMED 1 3.3 17:05:08 16° NE 17:08:01 33° E 17:11:55 10° SSE
MOS 1-B Rocket 4.2 17:02:32 10° NNE 17:08:17 53° E 17:14:45 10° S
Cosmos 1939 Rocket 3.7 17:04:33 10° S 17:08:36 56° W 17:12:39 10° NNW
SL-24 R/B - RUBIN 2 3.6 17:07:09 10° NNW 17:11:41 57° NE 17:15:48 11° SE
Meteor 1-25 Rocket 4.4 17:06:09 10° NNW 17:11:43 77° W 17:17:19 10° S
Meteor 2-21 4.3 17:06:32 10° N 17:12:38 73° E 17:18:40 10° SSE
Cosmos 841 Rocket 3.6 17:08:12 10° S 17:13:14 55° ESE 17:17:15 16° NNE
Cosmos 1812 3.2 17:11:29 10° SSE 17:15:02 37° E 17:16:32 26° NE
Cosmos 1937 Rocket 3.5 17:10:36 10° NNW 17:15:58 88° WSW 17:21:17 10° SSE
SL-16 R/B 3.3 17:12:02 10° N 17:16:32 23° NE 17:17:26 23° ENE
Cosmos 1634 Rocket 4.0 17:11:10 10° S 17:17:27 74° E 17:23:47 10° NNE
Cosmos 1633 Rocket 3.4 17:14:49 10° N 17:18:57 39° ENE 17:23:03 10° SE
USA 307 4.0 17:15:54 10° WNW 17:19:46 32° N 17:21:20 24° NE
YAOGAN 1 4.2 17:22:20 18° NNE 17:22:20 18° NNE 17:23:54 10° N
Cosmos 2082 Rocket 2.4 17:15:17 10° S 17:20:46 53° ESE 17:24:27 21° NE
USA 229 DEB 4.3 17:13:32 10° NW 17:20:49 67° WSW 17:28:33 10° SSE
USA 229 4.3 17:13:37 10° NW 17:20:55 68° WSW 17:28:39 10° SSE
Cosmos 2026 Rocket 4.0 17:18:18 10° N 17:24:29 86° W 17:30:34 10° S
Cosmos 2333 Rocket 4.3 17:23:10 10° NNE 17:24:11 11° NNE 17:24:11 11° NNE
ATLAS 2AS CENTAUR R/B 4.4 17:23:42 10° NW 17:29:27 22° N 17:33:27 15° NNE
Okean O Rocket 1.6 17:25:19 10° SSE 17:29:41 58° ENE 17:34:04 10° N
USA 276 4.5 17:27:20 10° W 17:29:50 22° SW 17:32:20 10° SSE
Cosmos 372 Rocket 3.9 17:25:01 10° NNW 17:30:18 81° ENE 17:35:33 10° SSE
Cosmos 2278 3.7 17:25:07 10° NNW 17:30:47 60° ENE 17:36:24 10° SE
ATLAS CENTAUR R/B 4.0 17:32:20 10° NW 17:33:56 12° NNW 17:35:35 10° N
Cosmos 1151 Rocket 3.0 17:31:39 10° S 17:35:54 60° E 17:38:07 27° NNE
Cosmos 1782 3.0 17:31:59 10° SSW 17:35:57 71° W 17:39:43 11° N
Cosmos 1655 Rocket 4.3 17:30:52 10° N 17:36:57 43° ENE 17:42:58 10° SE
USA 234 4.0 17:31:43 10° SSE 17:38:05 54° SW 17:44:29 10° WNW
COSMOS 2406 3.4 17:32:43 10° SSW 17:38:27 74° WNW 17:43:05 16° NNE
COSMOS 2455 2.8 17:34:16 10° SSW 17:40:17 81° ESE 17:43:55 26° NE
USA 308 3.9 17:38:30 10° WNW 17:42:21 32° N 17:42:51 31° NNE
ARGOS 3.0 17:37:57 10° SSE 17:43:22 79° ENE 17:48:48 10° NNW
Cosmos 1666 Rocket 3.4 17:39:26 10° N 17:43:55 86° E 17:48:19 10° S
Cosmos 1833 Rocket 3.4 17:39:37 10° SW 17:45:06 53° WNW 17:49:48 14° NNE
Cosmos 2180 Rocket 4.5 17:42:03 10° S 17:48:17 63° E 17:54:30 10° NNE
Meteor 2-6 Rocket 4.2 17:44:22 10° S 17:50:03 60° E 17:53:25 24° NNE
Cosmos 1328 Rocket 3.5 17:45:52 10° S 17:50:14 61° E 17:50:52 54° NE
ISS -3.7 17:46:56 10° WNW 17:50:10 79° W 17:50:10 79° W
Cosmos 2219 Rocket 4.3 17:51:46 10° N 17:52:22 11° NNE 17:52:22 11° NNE
CZ-4 R/B 4.4 17:50:03 10° SSE 17:54:11 85° WSW 17:58:21 10° NNW
SKYMED 2 3.6 17:53:45 26° N 17:56:12 80° WNW 18:00:32 10° SSW
Lacrosse 5 rocket 2.1 17:53:35 10° NW 17:56:30 36° N 17:56:30 36° N
CZ-4B R/B 3.6 17:55:01 10° S 18:00:24 63° WSW 18:05:44 10° NNW
Landsat 5 3.2 18:00:26 80° ENE 18:00:35 82° ESE 18:04:34 10° SSW
Cosmos 1570 Rocket 3.8 17:55:25 10° SSW 18:00:38 75° ESE 18:02:05 48° NE
Cosmos 2298 Rocket 4.1 17:55:28 10° NNW 18:00:27 51° NE 18:00:27 51° NE
Meteor 2-8 Rocket 4.3 17:55:19 10° S 18:01:26 75° E 18:07:36 10° NNE
ATLAS CENTAUR R/B 2.8 17:54:01 10° WSW 18:02:14 54° NW 18:03:24 42° NNE
SL-08 RB Rocket 3.6 17:58:34 10° SSE 18:03:13 85° ENE 18:07:51 10° NNW
GEOS 3 Rocket 3.5 18:02:08 50° ESE 18:03:26 71° NE 18:08:37 10° NW
CZ-2C R/B 2.7 17:59:23 12° N 18:04:11 74° WNW 18:09:19 10° SSW
Cosmos 540 Rocket 4.4 17:59:52 10° SW 18:04:44 44° WNW 18:08:24 17° N
Meteor 1-10 Rocket 4.2 18:02:24 10° S 18:08:07 62° E 18:09:02 54° NE
Cosmos 1814 Rocket 3.9 18:03:08 10° SSW 18:08:23 84° WNW 18:10:08 43° NNE
Meteor 1-11 Rocket 3.8 18:02:51 10° N 18:07:51 54° NE 18:07:51 54° NE
Cosmos 1818 3.5 18:03:05 10° NNW 18:08:35 67° NE 18:09:02 64° E
USA 305 4.0 18:05:48 10° NW 18:08:56 33° NNW 18:08:56 33° NNW
Cosmos 44 Rocket 3.4 18:07:25 10° NNW 18:11:47 60° N 18:11:47 60° N
CZ-4C R/B 3.0 18:05:31 10° NW 18:12:47 84° SW 18:20:10 15° SSE
Feng Yun 1-1 Rocket 4.4 18:13:15 10° SSE 18:19:11 82° WSW 18:25:06 10° NNW
Cosmos 2360 Rocket 3.8 18:19:51 10° NNW 18:22:13 22° N 18:22:13 22° N
Cosmos 2208 Rocket 4.1 18:28:00 10° SSW 18:33:24 75° WNW 18:33:46 71° NNW
H-2A R/B 4.3 18:30:21 10° SSW 18:34:30 24° W 18:38:35 10° NW
COSMO-SKYMED 1 4.5 18:42:21 21° NNW 18:44:04 27° WNW 18:47:44 10° SW
Cosmos 2322 Rocket 3.2 18:38:37 10° NNW 18:41:55 35° N 18:41:55 35° N
USA 267 4.0 18:45:33 39° N 18:46:30 41° N 18:52:30 10° WNW
Cosmos 1980 Rocket 4.2 18:45:50 10° NW 18:50:26 26° WSW 18:55:02 10° SSW
Cosmos 2266 Rocket 4.4 18:44:57 10° NNW 18:51:14 62° W 18:57:31 10° S
SL-16 R/B 3.1 18:55:35 10° NNW 18:59:21 43° NW 18:59:21 43° NW
Cosmos 2082 Rocket 3.7 19:00:10 10° WSW 19:05:08 30° NW 19:06:21 28° NNW
Okean O Rocket 4.4 19:03:32 10° SW 19:06:23 17° W 19:09:15 10° NW
Cosmos 2333 Rocket 4.5 19:05:15 10° NNW 19:06:11 14° N 19:06:11 14° N
ATLAS 2AS CENTAUR R/B 4.3 19:16:46 10° NW 19:20:53 24° N 19:20:53 24° N
